Weather History for ORANGE GROVE, NALF, TX

Change the Weather History Date:

Sunday, May 25, 2014

  Actual Average (KALI) Record (KALI)
Temperature  
Mean Temperature 82 °F -  
Max Temperature 90 °F 90 °F 99 °F (2011)
Min Temperature 75 °F 69 °F 64 °F (2007)
Cooling Degree Days 17    
Growing Degree Days 32 (Base 50)    
Moisture  
Dew Point 71 °F    
Average Humidity 78    
Maximum Humidity 90    
Minimum Humidity 53    
Precipitation  
Precipitation 0.00 in - - ()
Sea Level Pressure  
Sea Level Pressure 29.91 in    
Wind  
Wind Speed 15 mph (SE)    
Max Wind Speed 24 mph    
Max Gust Speed 30 mph    
Visibility 10 miles    
Events      
Averages and records for this station are not official NWS values.
T = Trace of Precipitation, MM = Missing Value Source: NWS Daily Summary

Daily Weather History Graph

Daily Weather History Graph

Search for Another Location

Airport:

Trip Planner

Search our weather history database for the weather conditions in past years. The results will help you decide how hot, cold, wet, or windy it might be!

Date:

Astronomy

May. 25, 2014 Rise Set
Actual Time 6:38 AM CDT 8:20 PM CDT
Civil Twilight 6:12 AM CDT 8:46 PM CDT
Nautical Twilight 5:40 AM CDT 9:17 PM CDT
Astronomical Twilight 5:08 AM CDT 9:50 PM CDT
Moon 4:26 AM CDT (5/25) 5:36 PM CDT (5/25)
Length of Visible Light 14h 34m
Length of Day
13h 42m
Waning Crescent, 10% of the Moon is Illuminated
May 25
Waning Crescent
May 28
New
Jun 5
First Quarter
Jun 12
Full
Jun 19
Last Quarter

Hourly Weather History & Observations

Time (CDT) Temp. Heat Index Dew Point Humidity Pressure Visibility Wind Dir Wind Speed Gust Speed Precip Events Conditions
12:18 AM 75.0 °F - 70.0 °F 84% 29.97 in 10.0 mi SSE 15.0 mph - N/A   Scattered Clouds
12:39 AM 75.0 °F - 70.0 °F 84% 29.97 in 10.0 mi SSE 13.8 mph - N/A   Mostly Cloudy
12:56 AM 75.0 °F - 71.1 °F 87% 29.91 in 10.0 mi SSE 13.8 mph - N/A   Overcast
1:16 AM 75.0 °F - 71.1 °F 87% 29.97 in 10.0 mi SE 11.5 mph - N/A   Overcast
1:29 AM 75.0 °F - 71.1 °F 87% 29.98 in 10.0 mi SE 10.4 mph - N/A   Overcast
1:56 AM 75.0 °F - 71.1 °F 87% 29.91 in 10.0 mi SE 13.8 mph - N/A   Overcast
2:56 AM 75.0 °F - 71.1 °F 87% 29.89 in 10.0 mi SSE 11.5 mph - N/A   Overcast
3:19 AM 75.0 °F - 71.1 °F 87% 29.94 in 10.0 mi SE 12.7 mph - N/A   Overcast
3:27 AM 75.0 °F - 72.0 °F 90% 29.93 in 10.0 mi SE 13.8 mph - N/A   Overcast
3:56 AM 75.0 °F - 72.0 °F 90% 29.86 in 10.0 mi SE 13.8 mph - N/A   Overcast
4:56 AM 75.9 °F - 72.0 °F 87% 29.86 in 10.0 mi SSE 15.0 mph - N/A   Overcast
5:56 AM 75.9 °F - 72.0 °F 87% 29.88 in 10.0 mi SSE 12.7 mph - N/A   Overcast
6:20 AM 75.9 °F - 72.0 °F 87% 29.94 in 10.0 mi SSE 13.8 mph - N/A   Overcast
6:56 AM 75.9 °F - 72.0 °F 87% 29.89 in 10.0 mi SSE 12.7 mph - N/A   Overcast
7:56 AM 77.0 °F - 73.0 °F 88% 29.91 in 8.0 mi SE 11.5 mph - N/A   Overcast
8:04 AM 77.0 °F - 73.0 °F 88% 29.96 in 8.0 mi SE 13.8 mph - N/A   Overcast
8:32 AM 78.1 °F - 73.0 °F 84% 29.97 in 8.0 mi SE 16.1 mph - N/A   Overcast
8:56 AM 78.1 °F - 73.0 °F 84% 29.92 in 9.0 mi SSE 15.0 mph - N/A   Overcast
10:36 AM 82.0 °F 86.7 °F 72.0 °F 71% 29.99 in 10.0 mi SSE 17.3 mph - N/A   Mostly Cloudy
10:56 AM 82.9 °F 88.0 °F 72.0 °F 69% 29.93 in 10.0 mi SSE 20.7 mph - N/A   Mostly Cloudy
11:56 AM 86.0 °F 91.5 °F 71.1 °F 61% 29.93 in 10.0 mi SE 20.7 mph 28.8 mph N/A   Mostly Cloudy
12:56 PM 86.0 °F 90.7 °F 70.0 °F 59% 29.92 in 10.0 mi SSE 18.4 mph 25.3 mph N/A   Scattered Clouds
1:56 PM 88.0 °F 93.8 °F 71.1 °F 57% 29.90 in 10.0 mi SE 16.1 mph 27.6 mph N/A   Partly Cloudy
2:56 PM 89.1 °F 95.0 °F 71.1 °F 55% 29.88 in 10.0 mi SE 21.9 mph 27.6 mph N/A   Partly Cloudy
3:56 PM 89.1 °F 94.1 °F 70.0 °F 53% 29.86 in 10.0 mi SE 19.6 mph 28.8 mph N/A   Scattered Clouds
4:56 PM 87.1 °F 92.0 °F 70.0 °F 57% 29.84 in 10.0 mi SE 20.7 mph 27.6 mph N/A   Scattered Clouds
5:56 PM 86.0 °F 89.4 °F 68.0 °F 55% 29.83 in 10.0 mi SE 24.2 mph 29.9 mph N/A   Clear
6:56 PM 82.9 °F 85.0 °F 66.0 °F 56% 29.83 in 10.0 mi SE 19.6 mph - N/A   Clear
7:56 PM 80.1 °F 82.9 °F 69.1 °F 69% 29.85 in 10.0 mi SE 20.7 mph - N/A   Clear
8:48 PM 78.1 °F - 70.0 °F 76% 29.93 in 10.0 mi SE 16.1 mph - N/A   Mostly Cloudy
8:56 PM 77.0 °F - 70.0 °F 79% 29.88 in 10.0 mi SE 17.3 mph - N/A   Scattered Clouds
9:33 PM 77.0 °F - 71.1 °F 82% 29.95 in 10.0 mi SE 16.1 mph 26.5 mph N/A   Mostly Cloudy
9:56 PM 77.0 °F - 71.1 °F 82% 29.90 in 10.0 mi SE 18.4 mph - N/A   Overcast
10:39 PM 75.9 °F - 71.1 °F 85% 29.98 in 10.0 mi SE 16.1 mph - N/A   Mostly Cloudy
10:47 PM 75.9 °F - 71.1 °F 85% 29.98 in 10.0 mi SE 17.3 mph 21.9 mph N/A   Scattered Clouds
10:56 PM 75.9 °F - 72.0 °F 87% 29.92 in 10.0 mi SE 13.8 mph - N/A   Partly Cloudy
11:56 PM 75.9 °F - 72.0 °F 87% 29.89 in 10.0 mi SSE 18.4 mph - N/A   Clear